ダレスト彗星

6P/d'Arrest (2002)

English version
Home page
Updated on September 23, 2004

---------------------------------------------------------------------

・ プロフィール

・ 軌道要素

Epoch 2002 Feb. 15.0 TT = JDT 2452320.5  
T 2002 Feb. 3.59463 TT                                  Muraoka 
q   1.3527674            (2000.0)            P               Q
n   0.15092357     Peri.  178.11385     +0.73329322     +0.64360448
a   3.4937997      Node   138.94498     -0.62809589     +0.76468661
e   0.6128091      Incl.   19.49761     -0.26033939     -0.03205706
P   6.53
From 313 observations 1988-1999, mean residual 0".71.  Nongravitational
   parameters A1 = +0.70 +/- 0.03, A2 = +0.1157 +/- 0.0033.

・ 星図

・ 光度変化

        m1 = 16.0 + 5 logΔ +  5.0 log r          [   ,-75]  (              〜2001年11月20日)
        m1 =  5.0 + 5 logΔ + 38.0 log r(t - 72)  [-75,240]  (2001年11月20日〜2002年10月 1日)
        m1 = 16.0 + 5 logΔ +  5.0 log r          [240,   ]  (2002年10月 1日〜              )

---------------------------------------------------------------------

軌道要素は村岡健治氏の計算によるものです。
星図は StellaNavigator Ver.2.0 for Windows (アストロアーツ 編著 / アスキー出版局刊) で作成したものです。
光度グラフはComet for Windowsで作成したものです。

---------------------------------------------------------------------

Copyright(C) Seiichi Yoshida (comet@aerith.net). All rights reserved.